Location: Fredericton
(45.9636°N, 66.6431°W)
Time: 04:23:01
(UTC-04:00)

X-37B - Visible Passes

Search period start: 09 December 2023 00:00
Search period end: 19 December 2023 00:00
Orbit: 277 x 277 km, 45.0° (Epoch: 01 November)

Date Brightness Start Highest point End Pass type
(mag) Time Alt. Az. Time Alt. Az. Time Alt. Az.
09 Dec 1.0 17:36:26 10° W 17:38:47 42° SSW 17:41:09 10° ESE visible
10 Dec 1.8 17:37:11 10° W 17:39:25 29° SSW 17:41:37 10° SE visible
11 Dec 2.6 17:38:04 10° WSW 17:39:58 20° SSW 17:41:53 10° SSE visible
12 Dec 3.2 17:39:17 10° WSW 17:40:30 13° SSW 17:41:43 10° S visible
